Location: Port-Aux-Quilles Astronomical Observatory
(47.9769°N, 69.9642°W)
Time: 05:00:49
(UTC-04:00)

ISS - Visible Passes

Search period start: 20 October 2019 00:00
Search period end: 30 October 2019 00:00
Orbit: 411 x 421 km, 51.6° (Epoch: 20 October)

Date Brightness Start Highest point End Pass type
(mag) Time Alt. Az. Time Alt. Az. Time Alt. Az.
23 Oct -0.6 06:15:44 10° SSE 06:17:18 13° SE 06:18:51 10° ESE visible
25 Oct -1.8 06:13:30 10° SSW 06:16:26 28° SE 06:19:23 10° E visible
26 Oct -1.2 05:25:33 10° S 05:27:58 18° SE 05:30:24 10° E visible
27 Oct -0.8 04:39:26 12° SE 04:39:33 12° SE 04:40:51 10° ESE visible
27 Oct -3.3 06:12:23 10° SW 06:15:43 61° SSE 06:19:02 10° ENE visible
28 Oct -2.7 05:26:09 31° S 05:27:08 40° SE 05:30:19 10° ENE visible
29 Oct -1.2 04:39:48 21° ESE 04:39:48 21° ESE 04:41:28 10° E visible
29 Oct -3.8 06:12:43 18° WSW 06:15:06 72° NNW 06:18:29 10° ENE visible
